When you browse on this site, cookies collect data to enhance your experience and personalize the content and advertising you see.
Visit our Privacy Policy to learn more. By continuing to use the site, you agree to this use of cookies and data.
  • In Österreich
  • Länderverzeichnis
  • Für 7 Tage
  • Wassertemperatur
  • Wetterkarte
  • News
  • Widgets
  • user-avatar
    Anmelden

    Stündliche Wetter Tezontepec de Aldama

    Heute, 17 September, Dienstag

    Zeit Temperatur Niederschläge Wind Luftdruck Luftfeuchtigkeit
    00:00 +13°C° 0 mm 0 m/S 599 mmHg 96%
    01:00 +13°C° 0 mm 0 m/S 599 mmHg 97%
    02:00 +13°C° 0 mm 0 m/S 598 mmHg 97%
    03:00 +13°C° 0 mm 0 m/S 598 mmHg 96%
    04:00 +13°C° 0 mm 0 m/S 599 mmHg 94%
    05:00 +13°C° 0 mm 0 m/S 599 mmHg 94%
    06:00 +14°C° 0 mm 0 m/S 600 mmHg 89%
    07:00 +16°C° 0 mm 0 m/S 600 mmHg 84%
    08:00 +19°C° 0 mm 1 m/S 601 mmHg 78%
    09:00 +20°C° 0 mm 1 m/S 601 mmHg 73%
    10:00 +21°C° 0 mm 2 m/S 602 mmHg 68%
    11:00 +23°C° 0 mm 2 m/S 602 mmHg 63%
    12:00 +24°C° 0.1 mm 3 m/S 602 mmHg 62%
    13:00 +24°C° 0.1 mm 3 m/S 601 mmHg 61%
    14:00 +24°C° 0.1 mm 3 m/S 600 mmHg 61%
    15:00 +24°C° 0.1 mm 3 m/S 600 mmHg 64%
    16:00 +22°C° 0.1 mm 3 m/S 600 mmHg 68%
    17:00 +21°C° 0.1 mm 3 m/S 600 mmHg 72%
    18:00 +20°C° 0.6 mm 3 m/S 600 mmHg 79%
    19:00 +18°C° 0.6 mm 2 m/S 600 mmHg 86%
    20:00 +18°C° 0.6 mm 1 m/S 600 mmHg 94%
    21:00 +16°C° 0.1 mm 1 m/S 599 mmHg 95%
    22:00 +16°C° 0.1 mm 1 m/S 599 mmHg 96%
    23:00 +14°C° 0.1 mm 0 m/S 599 mmHg 97%

    Morgen, 18 September, Mittwoch

    Zeit Temperatur Niederschläge Wind Luftdruck Luftfeuchtigkeit
    00:00 +15°C° 0 mm 0 m/S 599 mmHg 97%
    01:00 +15°C° 0 mm 0 m/S 599 mmHg 96%
    02:00 +15°C° 0 mm 0 m/S 599 mmHg 96%
    03:00 +15°C° 0 mm 0 m/S 599 mmHg 94%
    04:00 +15°C° 0 mm 0 m/S 599 mmHg 93%
    05:00 +15°C° 0 mm 0 m/S 599 mmHg 91%
    06:00 +16°C° 0 mm 0 m/S 600 mmHg 87%
    07:00 +17°C° 0 mm 0 m/S 600 mmHg 82%
    08:00 +20°C° 0 mm 1 m/S 601 mmHg 77%
    09:00 +21°C° 0.1 mm 1 m/S 601 mmHg 71%
    10:00 +23°C° 0.1 mm 1 m/S 601 mmHg 65%
    11:00 +24°C° 0.1 mm 1 m/S 602 mmHg 59%
    12:00 +25°C° 1.5 mm 2 m/S 601 mmHg 60%
    13:00 +25°C° 1.5 mm 2 m/S 601 mmHg 61%
    14:00 +25°C° 1.5 mm 3 m/S 600 mmHg 61%
    15:00 +24°C° 2.7 mm 3 m/S 600 mmHg 67%
    16:00 +23°C° 2.7 mm 2 m/S 600 mmHg 73%
    17:00 +21°C° 2.7 mm 2 m/S 599 mmHg 79%
    18:00 +20°C° 2.6 mm 2 m/S 600 mmHg 82%
    19:00 +20°C° 2.6 mm 1 m/S 600 mmHg 86%
    20:00 +19°C° 2.6 mm 1 m/S 600 mmHg 89%
    21:00 +19°C° 1.1 mm 1 m/S 600 mmHg 89%
    22:00 +19°C° 1.1 mm 1 m/S 600 mmHg 90%
    23:00 +19°C° 1.1 mm 1 m/S 600 mmHg 90%

    übermorgen, 19 September, Donnerstag

    Zeit Temperatur Niederschläge Wind Luftdruck Luftfeuchtigkeit
    00:00 +18°C° 0.2 mm 1 m/S 600 mmHg 90%
    01:00 +18°C° 0.2 mm 1 m/S 599 mmHg 90%
    02:00 +18°C° 0.2 mm 1 m/S 599 mmHg 90%
    03:00 +16°C° 0 mm 1 m/S 599 mmHg 91%
    04:00 +15°C° 0 mm 0 m/S 598 mmHg 91%
    05:00 +14°C° 0 mm 0 m/S 598 mmHg 92%
    06:00 +16°C° 0 mm 0 m/S 599 mmHg 85%
    07:00 +19°C° 0 mm 1 m/S 600 mmHg 79%
    08:00 +21°C° 0 mm 1 m/S 600 mmHg 73%
    09:00 +22°C° 0 mm 1 m/S 601 mmHg 67%
    10:00 +24°C° 0 mm 2 m/S 601 mmHg 60%
    11:00 +25°C° 0 mm 3 m/S 601 mmHg 54%
    12:00 +25°C° 0.4 mm 4 m/S 600 mmHg 56%
    13:00 +25°C° 0.4 mm 4 m/S 600 mmHg 59%
    14:00 +25°C° 0.4 mm 5 m/S 599 mmHg 61%
    15:00 +23°C° 0.9 mm 5 m/S 599 mmHg 67%
    16:00 +21°C° 0.9 mm 4 m/S 598 mmHg 72%
    17:00 +20°C° 0.9 mm 4 m/S 598 mmHg 78%
    18:00 +19°C° 0.5 mm 3 m/S 598 mmHg 83%
    19:00 +18°C° 0.5 mm 2 m/S 598 mmHg 87%
    20:00 +17°C° 0.5 mm 2 m/S 598 mmHg 92%
    21:00 +16°C° 0.1 mm 1 m/S 598 mmHg 94%
    22:00 +16°C° 0.1 mm 1 m/S 598 mmHg 95%
    23:00 +15°C° 0.1 mm 1 m/S 598 mmHg 96%

    20 September, Freitag

    Zeit Temperatur Niederschläge Wind Luftdruck Luftfeuchtigkeit
    00:00 +15°C° 0 mm 1 m/S 598 mmHg 96%
    01:00 +14°C° 0 mm 0 m/S 598 mmHg 96%
    02:00 +13°C° 0 mm 0 m/S 597 mmHg 96%
    03:00 +13°C° 0 mm 0 m/S 597 mmHg 96%
    04:00 +13°C° 0 mm 0 m/S 597 mmHg 95%
    05:00 +13°C° 0 mm 0 m/S 597 mmHg 95%
    06:00 +14°C° 0 mm 0 m/S 598 mmHg 91%
    07:00 +15°C° 0 mm 0 m/S 599 mmHg 87%
    08:00 +16°C° 0 mm 0 m/S 599 mmHg 83%
    09:00 +20°C° 0 mm 1 m/S 600 mmHg 75%
    10:00 +22°C° 0 mm 1 m/S 600 mmHg 67%
    11:00 +23°C° 0 mm 2 m/S 600 mmHg 59%
    12:00 +24°C° 0 mm 3 m/S 600 mmHg 55%
    13:00 +25°C° 0 mm 4 m/S 600 mmHg 52%
    14:00 +26°C° 0 mm 4 m/S 600 mmHg 49%
    15:00 +23°C° 0.1 mm 4 m/S 600 mmHg 57%
    16:00 +22°C° 0.1 mm 4 m/S 599 mmHg 65%
    17:00 +21°C° 0.1 mm 3 m/S 599 mmHg 73%
    18:00 +19°C° 0.2 mm 3 m/S 599 mmHg 79%
    19:00 +18°C° 0.2 mm 2 m/S 599 mmHg 86%
    20:00 +16°C° 0.2 mm 2 m/S 599 mmHg 93%
    21:00 +16°C° 0 mm 1 m/S 599 mmHg 94%
    22:00 +16°C° 0 mm 1 m/S 599 mmHg 95%
    23:00 +15°C° 0 mm 1 m/S 599 mmHg 96%

    21 September, Samstag

    Zeit Temperatur Niederschläge Wind Luftdruck Luftfeuchtigkeit
    00:00 +15°C° 0 mm 1 m/S 599 mmHg 96%
    01:00 +14°C° 0 mm 0 m/S 599 mmHg 96%
    02:00 +14°C° 0 mm 0 m/S 599 mmHg 95%
    03:00 +14°C° 0 mm 0 m/S 599 mmHg 93%
    04:00 +15°C° 0 mm 0 m/S 599 mmHg 90%
    05:00 +15°C° 0 mm 0 m/S 600 mmHg 87%
    06:00 +16°C° 0 mm 0 m/S 600 mmHg 83%
    07:00 +16°C° 0 mm 0 m/S 600 mmHg 78%
    08:00 +19°C° 0 mm 1 m/S 601 mmHg 73%
    09:00 +21°C° 0 mm 1 m/S 601 mmHg 65%
    10:00 +23°C° 0 mm 1 m/S 602 mmHg 57%
    11:00 +24°C° 0 mm 2 m/S 602 mmHg 48%
    12:00 +25°C° 0 mm 3 m/S 601 mmHg 47%
    13:00 +26°C° 0 mm 4 m/S 601 mmHg 45%
    14:00 +26°C° 0 mm 5 m/S 601 mmHg 43%
    15:00 +25°C° 0 mm 4 m/S 600 mmHg 52%
    16:00 +22°C° 0 mm 4 m/S 600 mmHg 61%
    17:00 +21°C° 0 mm 4 m/S 600 mmHg 70%
    18:00 +19°C° 0 mm 3 m/S 600 mmHg 78%
    19:00 +18°C° 0 mm 2 m/S 600 mmHg 85%
    20:00 +16°C° 0 mm 1 m/S 600 mmHg 92%
    21:00 +16°C° 0 mm 1 m/S 599 mmHg 94%
    22:00 +15°C° 0 mm 1 m/S 599 mmHg 95%
    23:00 +14°C° 0 mm 0 m/S 599 mmHg 96%

    22 September, Sonntag

    Zeit Temperatur Niederschläge Wind Luftdruck Luftfeuchtigkeit
    00:00 +13°C° 0 mm 0 m/S 599 mmHg 96%
    01:00 +13°C° 0 mm 0 m/S 599 mmHg 96%
    02:00 +13°C° 0 mm 0 m/S 598 mmHg 96%
    03:00 +13°C° 0 mm 0 m/S 598 mmHg 96%
    04:00 +13°C° 0 mm 0 m/S 598 mmHg 95%
    05:00 +12°C° 0 mm 0 m/S 598 mmHg 95%
    06:00 +14°C° 0 mm 0 m/S 599 mmHg 88%
    07:00 +16°C° 0 mm 0 m/S 600 mmHg 81%
    08:00 +17°C° 0 mm 0 m/S 601 mmHg 73%
    09:00 +21°C° 0 mm 1 m/S 601 mmHg 66%
    10:00 +23°C° 0 mm 1 m/S 602 mmHg 59%
    11:00 +25°C° 0 mm 2 m/S 602 mmHg 52%
    12:00 +25°C° 0 mm 3 m/S 602 mmHg 49%
    13:00 +26°C° 0 mm 4 m/S 601 mmHg 46%
    14:00 +27°C° 0 mm 5 m/S 601 mmHg 43%
    15:00 +25°C° 0 mm 4 m/S 601 mmHg 51%
    16:00 +23°C° 0 mm 4 m/S 600 mmHg 60%
    17:00 +21°C° 0 mm 4 m/S 600 mmHg 69%
    18:00 +20°C° 0 mm 3 m/S 600 mmHg 77%
    19:00 +18°C° 0 mm 2 m/S 599 mmHg 85%
    20:00 +16°C° 0 mm 1 m/S 599 mmHg 94%
    21:00 +16°C° 0 mm 1 m/S 599 mmHg 94%
    22:00 +15°C° 0 mm 1 m/S 599 mmHg 95%
    23:00 +14°C° 0 mm 0 m/S 599 mmHg 96%
    Mehr zeigen